Year,Month,Day,Hour,Minute,Value (Times are PST for temperature in C)
2014,07,11,00,00,17.80
2014,07,11,00,01,17.80
2014,07,11,00,02,17.80
2014,07,11,00,03,17.80
2014,07,11,00,04,17.80
2014,07,11,00,05,17.90
2014,07,11,00,06,17.90
2014,07,11,00,07,17.90
2014,07,11,00,08,17.90
2014,07,11,00,09,17.90
2014,07,11,00,10,17.90
2014,07,11,00,11,17.80
2014,07,11,00,12,17.80
2014,07,11,00,13,17.70
2014,07,11,00,14,17.60
2014,07,11,00,15,17.60
2014,07,11,00,16,17.50
2014,07,11,00,17,17.50
2014,07,11,00,18,17.40
2014,07,11,00,19,17.40
2014,07,11,00,20,17.40
2014,07,11,00,21,17.30
2014,07,11,00,22,17.30
2014,07,11,00,23,17.30
2014,07,11,00,24,17.30
2014,07,11,00,25,17.20
2014,07,11,00,26,17.20
2014,07,11,00,27,17.20
2014,07,11,00,28,17.20
2014,07,11,00,29,17.20
2014,07,11,00,30,17.20
2014,07,11,00,31,17.10
2014,07,11,00,32,17.10
2014,07,11,00,33,17.10
2014,07,11,00,34,17.10
2014,07,11,00,35,17.10
2014,07,11,00,36,17.10
2014,07,11,00,37,17.00
2014,07,11,00,38,17.00
2014,07,11,00,39,17.10
2014,07,11,00,40,17.10
2014,07,11,00,41,17.10
2014,07,11,00,42,17.10
2014,07,11,00,43,17.10
2014,07,11,00,44,17.10
2014,07,11,00,45,17.10
2014,07,11,00,46,17.10
2014,07,11,00,47,17.10
2014,07,11,00,48,17.10
2014,07,11,00,49,17.10
2014,07,11,00,50,17.20
2014,07,11,00,51,17.20
2014,07,11,00,52,17.20
2014,07,11,00,53,17.20
2014,07,11,00,54,17.20
2014,07,11,00,55,17.30
2014,07,11,00,56,17.30
2014,07,11,00,57,17.30
2014,07,11,00,58,17.30
2014,07,11,00,59,17.40
2014,07,11,01,00,17.50
2014,07,11,01,01,17.50
2014,07,11,01,02,17.60
2014,07,11,01,03,17.70
2014,07,11,01,04,17.70
2014,07,11,01,05,17.80
2014,07,11,01,06,17.80
2014,07,11,01,07,17.80
2014,07,11,01,08,17.90
2014,07,11,01,09,17.90
2014,07,11,01,10,17.90
2014,07,11,01,11,18.00
2014,07,11,01,12,18.00
2014,07,11,01,13,18.00
2014,07,11,01,14,18.00
2014,07,11,01,15,18.10
2014,07,11,01,16,18.10
2014,07,11,01,17,18.10
2014,07,11,01,18,18.10
2014,07,11,01,19,18.10
2014,07,11,01,20,18.10
2014,07,11,01,21,18.10
2014,07,11,01,22,18.20
2014,07,11,01,23,18.20
2014,07,11,01,24,18.20
2014,07,11,01,25,18.20
2014,07,11,01,26,18.20
2014,07,11,01,27,18.20
2014,07,11,01,28,18.20
2014,07,11,01,29,18.20
2014,07,11,01,30,18.20
2014,07,11,01,31,18.20
2014,07,11,01,32,18.20
2014,07,11,01,33,18.20
2014,07,11,01,34,18.20
2014,07,11,01,35,18.20
2014,07,11,01,36,18.20
2014,07,11,01,37,18.30
2014,07,11,01,38,18.30
2014,07,11,01,39,18.30
2014,07,11,01,40,18.30
2014,07,11,01,41,18.30
2014,07,11,01,42,18.30
2014,07,11,01,43,18.30
2014,07,11,01,44,18.30
2014,07,11,01,45,18.30
2014,07,11,01,46,18.30
2014,07,11,01,47,18.30
2014,07,11,01,48,18.30
2014,07,11,01,49,18.30
2014,07,11,01,50,18.30
2014,07,11,01,51,18.30
2014,07,11,01,52,18.30
2014,07,11,01,53,18.30
2014,07,11,01,54,18.30
2014,07,11,01,55,18.30
2014,07,11,01,56,18.30
2014,07,11,01,57,18.30
2014,07,11,01,58,18.30
2014,07,11,01,59,18.30
2014,07,11,02,00,18.30
2014,07,11,02,01,18.30
2014,07,11,02,02,18.30
2014,07,11,02,03,18.20
2014,07,11,02,04,18.20
2014,07,11,02,05,18.20
2014,07,11,02,06,18.20
2014,07,11,02,07,18.20
2014,07,11,02,08,18.20
2014,07,11,02,09,18.20
2014,07,11,02,10,18.20
2014,07,11,02,11,18.20
2014,07,11,02,12,18.20
2014,07,11,02,13,18.10
2014,07,11,02,14,18.10
2014,07,11,02,15,18.10
2014,07,11,02,16,18.10
2014,07,11,02,17,18.10
2014,07,11,02,18,18.10
2014,07,11,02,19,18.10
2014,07,11,02,20,18.00
2014,07,11,02,21,18.00
2014,07,11,02,22,18.00
2014,07,11,02,23,18.00
2014,07,11,02,24,17.90
2014,07,11,02,25,17.90
2014,07,11,02,26,17.90
2014,07,11,02,27,17.90
2014,07,11,02,28,17.80
2014,07,11,02,29,17.80
2014,07,11,02,30,17.80
2014,07,11,02,31,17.80
2014,07,11,02,32,17.80
2014,07,11,02,33,17.80
2014,07,11,02,34,17.80
2014,07,11,02,35,17.80
2014,07,11,02,36,17.80
2014,07,11,02,37,17.80
2014,07,11,02,38,17.80
2014,07,11,02,39,17.70
2014,07,11,02,40,17.70
2014,07,11,02,41,17.70
2014,07,11,02,42,17.70
2014,07,11,02,43,17.70
2014,07,11,02,44,17.70
2014,07,11,02,45,17.70
2014,07,11,02,46,17.70
2014,07,11,02,47,17.70
2014,07,11,02,48,17.60
2014,07,11,02,49,17.60
2014,07,11,02,50,17.60
2014,07,11,02,51,17.60
2014,07,11,02,52,17.60
2014,07,11,02,53,17.50
2014,07,11,02,54,17.50
2014,07,11,02,55,17.50
2014,07,11,02,56,17.50
2014,07,11,02,57,17.40
2014,07,11,02,58,17.40
2014,07,11,02,59,17.40
2014,07,11,03,00,17.40
2014,07,11,03,01,17.40
2014,07,11,03,02,17.30
2014,07,11,03,06,17.30
2014,07,11,03,07,17.20
2014,07,11,03,08,17.20
2014,07,11,03,09,17.20
2014,07,11,03,10,17.20
2014,07,11,03,11,17.20
2014,07,11,03,12,17.10
2014,07,11,03,13,17.10
2014,07,11,03,14,17.10
2014,07,11,03,15,17.10
2014,07,11,03,16,17.10
2014,07,11,03,17,17.00
2014,07,11,03,18,17.00
2014,07,11,03,19,17.00
2014,07,11,03,20,17.00
2014,07,11,03,21,17.00
2014,07,11,03,22,17.00
2014,07,11,03,23,16.90
2014,07,11,03,24,16.90
2014,07,11,03,25,16.90
2014,07,11,03,26,16.90
2014,07,11,03,27,16.80
2014,07,11,03,28,16.80
2014,07,11,03,29,16.80
2014,07,11,03,30,16.80
2014,07,11,03,31,16.70
2014,07,11,03,32,16.70
2014,07,11,03,33,16.70
2014,07,11,03,34,16.70
2014,07,11,03,35,16.60
2014,07,11,03,36,16.60
2014,07,11,03,37,16.60
2014,07,11,03,38,16.60
2014,07,11,03,39,16.60
2014,07,11,03,40,16.60
2014,07,11,03,41,16.60
2014,07,11,03,42,16.50
2014,07,11,03,43,16.50
2014,07,11,03,44,16.50
2014,07,11,03,45,16.50
2014,07,11,03,46,16.50
2014,07,11,03,47,16.40
2014,07,11,03,48,16.40
2014,07,11,03,49,16.40
2014,07,11,03,50,16.40
2014,07,11,03,51,16.40
2014,07,11,03,52,16.30
2014,07,11,03,53,16.30
2014,07,11,03,54,16.30
2014,07,11,03,55,16.30
2014,07,11,03,56,16.20
2014,07,11,03,57,16.20
2014,07,11,03,58,16.20
2014,07,11,03,59,16.20
2014,07,11,04,00,16.20
2014,07,11,04,01,16.20
2014,07,11,04,02,16.20
2014,07,11,04,03,16.20
2014,07,11,04,04,16.10
2014,07,11,04,05,16.10
2014,07,11,04,06,16.10
2014,07,11,04,07,16.10
2014,07,11,04,08,16.10
2014,07,11,04,09,16.10
2014,07,11,04,10,16.10
2014,07,11,04,11,16.10
2014,07,11,04,12,16.10
2014,07,11,04,13,16.10
2014,07,11,04,14,16.00
2014,07,11,04,15,16.00
2014,07,11,04,16,16.00
2014,07,11,04,17,16.00
2014,07,11,04,18,15.90
2014,07,11,04,19,15.90
2014,07,11,04,20,15.90
2014,07,11,04,21,15.80
2014,07,11,04,22,15.80
2014,07,11,04,23,15.80
2014,07,11,04,24,15.80
2014,07,11,04,25,15.70
2014,07,11,04,26,15.70
2014,07,11,04,27,15.70
2014,07,11,04,28,15.60
2014,07,11,04,29,15.60
2014,07,11,04,30,15.60
2014,07,11,04,31,15.60
2014,07,11,04,32,15.50
2014,07,11,04,33,15.50
2014,07,11,04,34,15.50
2014,07,11,04,35,15.40
2014,07,11,04,36,15.40
2014,07,11,04,37,15.40
2014,07,11,04,38,15.40
2014,07,11,04,39,15.30
2014,07,11,04,40,15.30
2014,07,11,04,41,15.30
2014,07,11,04,42,15.30
2014,07,11,04,43,15.30
2014,07,11,04,44,15.30
2014,07,11,04,45,15.30
2014,07,11,04,46,15.30
2014,07,11,04,47,15.20
2014,07,11,04,48,15.20
2014,07,11,04,49,15.20
2014,07,11,04,50,15.20
2014,07,11,04,51,15.20
2014,07,11,04,52,15.20
2014,07,11,04,53,15.20
2014,07,11,04,54,15.20
2014,07,11,04,55,15.20
2014,07,11,04,56,15.20
2014,07,11,04,57,15.10
2014,07,11,04,58,15.10
2014,07,11,04,59,15.10
2014,07,11,05,00,15.10
2014,07,11,05,01,15.10
2014,07,11,05,02,15.10
2014,07,11,05,03,15.00
2014,07,11,05,04,15.00
2014,07,11,05,05,15.00
2014,07,11,05,06,15.00
2014,07,11,05,07,15.00
2014,07,11,05,08,15.00
2014,07,11,05,09,15.00
2014,07,11,05,10,15.00
2014,07,11,05,11,15.00
2014,07,11,05,12,15.00
2014,07,11,05,13,15.00
2014,07,11,05,14,15.10
2014,07,11,05,15,15.10
2014,07,11,05,16,15.10
2014,07,11,05,17,15.10
2014,07,11,05,18,15.10
2014,07,11,05,19,15.20
2014,07,11,05,20,15.20
2014,07,11,05,21,15.20
2014,07,11,05,22,15.20
2014,07,11,05,23,15.20
2014,07,11,05,24,15.20
2014,07,11,05,25,15.20
2014,07,11,05,26,15.30
2014,07,11,05,27,15.30
2014,07,11,05,28,15.30
2014,07,11,05,29,15.30
2014,07,11,05,30,15.30
2014,07,11,05,31,15.30
2014,07,11,05,32,15.30
2014,07,11,05,33,15.30
2014,07,11,05,34,15.30
2014,07,11,05,35,15.30
2014,07,11,05,36,15.30
2014,07,11,05,37,15.30
2014,07,11,05,38,15.30
2014,07,11,05,39,15.40
2014,07,11,05,40,15.40
2014,07,11,05,41,15.40
2014,07,11,05,42,15.40
2014,07,11,05,43,15.40
2014,07,11,05,44,15.50
2014,07,11,05,45,15.50
2014,07,11,05,46,15.60
2014,07,11,05,47,15.60
2014,07,11,05,48,15.60
2014,07,11,05,49,15.70
2014,07,11,05,50,15.70
2014,07,11,05,51,15.70
2014,07,11,05,52,15.70
2014,07,11,05,53,15.80
2014,07,11,05,54,15.80
2014,07,11,05,55,15.80
2014,07,11,05,56,15.80
2014,07,11,05,57,15.80
2014,07,11,05,58,15.80
2014,07,11,05,59,15.80
2014,07,11,06,00,15.80
2014,07,11,06,01,15.90
2014,07,11,06,02,15.90
2014,07,11,06,03,15.90
2014,07,11,06,04,16.00
2014,07,11,06,05,16.00
2014,07,11,06,06,16.00
2014,07,11,06,07,16.10
2014,07,11,06,08,16.10
2014,07,11,06,09,16.20
2014,07,11,06,10,16.30
2014,07,11,06,11,16.30
2014,07,11,06,12,16.40
2014,07,11,06,13,16.40
2014,07,11,06,14,16.50
2014,07,11,06,15,16.50
2014,07,11,06,16,16.60
2014,07,11,06,17,16.60
2014,07,11,06,18,16.60
2014,07,11,06,19,16.70
2014,07,11,06,20,16.70
2014,07,11,06,21,16.70
2014,07,11,06,22,16.70
2014,07,11,06,23,16.70
2014,07,11,06,24,16.70
2014,07,11,06,25,16.70
2014,07,11,06,26,16.70
2014,07,11,06,27,16.70
2014,07,11,06,28,16.70
2014,07,11,06,29,16.70
2014,07,11,06,30,16.70
2014,07,11,06,31,16.70
2014,07,11,06,32,16.70
2014,07,11,06,33,16.70
2014,07,11,06,34,16.70
2014,07,11,06,35,16.70
2014,07,11,06,36,16.70
2014,07,11,06,37,16.70
2014,07,11,06,38,16.70
2014,07,11,06,39,16.70
2014,07,11,06,40,16.70
2014,07,11,06,41,16.70
2014,07,11,06,42,16.70
2014,07,11,06,43,16.80
2014,07,11,06,44,16.80
2014,07,11,06,45,16.80
2014,07,11,06,46,16.80
2014,07,11,06,47,16.80
2014,07,11,06,48,16.90
2014,07,11,06,49,16.90
2014,07,11,06,50,16.90
2014,07,11,06,51,17.00
2014,07,11,06,52,17.00
2014,07,11,06,53,17.00
2014,07,11,06,54,17.10
2014,07,11,06,55,17.10
2014,07,11,06,56,17.10
2014,07,11,06,57,17.20
2014,07,11,06,58,17.20
2014,07,11,06,59,17.20
2014,07,11,07,00,17.30
2014,07,11,07,01,17.30
2014,07,11,07,02,17.40
2014,07,11,07,03,17.40
2014,07,11,07,04,17.50
2014,07,11,07,05,17.60
2014,07,11,07,06,17.60
2014,07,11,07,07,17.70
2014,07,11,07,08,17.80
2014,07,11,07,09,17.80
2014,07,11,07,10,17.90
2014,07,11,07,11,18.00
2014,07,11,07,12,18.00
2014,07,11,07,13,18.10
2014,07,11,07,14,18.20
2014,07,11,07,15,18.20
2014,07,11,07,16,18.30
2014,07,11,07,17,18.40
2014,07,11,07,18,18.50
2014,07,11,07,19,18.50
2014,07,11,07,20,18.60
2014,07,11,07,21,18.70
2014,07,11,07,22,18.70
2014,07,11,07,23,18.80
2014,07,11,07,24,18.80
2014,07,11,07,25,18.90
2014,07,11,07,26,18.90
2014,07,11,07,27,19.00
2014,07,11,07,28,19.10
2014,07,11,07,29,19.10
2014,07,11,07,30,19.20
2014,07,11,07,31,19.20
2014,07,11,07,32,19.20
2014,07,11,07,33,19.30
2014,07,11,07,34,19.30
2014,07,11,07,35,19.40
2014,07,11,07,36,19.40
2014,07,11,07,37,19.50
2014,07,11,07,38,19.50
2014,07,11,07,39,19.60
2014,07,11,07,40,19.60
2014,07,11,07,41,19.70
2014,07,11,07,42,19.70
2014,07,11,07,43,19.70
2014,07,11,07,44,19.80
2014,07,11,07,45,19.80
2014,07,11,07,46,19.80
2014,07,11,07,47,19.80
2014,07,11,07,48,19.80
2014,07,11,07,49,19.90
2014,07,11,07,50,19.90
2014,07,11,07,51,19.90
2014,07,11,07,52,19.90
2014,07,11,07,53,19.90
2014,07,11,07,54,19.90
2014,07,11,07,55,19.90
2014,07,11,07,56,19.90
2014,07,11,07,57,19.90
2014,07,11,07,58,20.00
2014,07,11,07,59,20.00
2014,07,11,08,00,20.10
2014,07,11,08,01,20.10
2014,07,11,08,02,20.10
2014,07,11,08,03,20.10
2014,07,11,08,04,20.10
2014,07,11,08,05,20.10
2014,07,11,08,06,20.10
2014,07,11,08,07,20.20
2014,07,11,08,08,20.20
2014,07,11,08,09,20.20
2014,07,11,08,10,20.20
2014,07,11,08,11,20.20
2014,07,11,08,12,20.20
2014,07,11,08,13,20.20
2014,07,11,08,14,20.20
2014,07,11,08,15,20.20
2014,07,11,08,16,20.20
2014,07,11,08,17,20.20
2014,07,11,08,18,20.20
2014,07,11,08,19,20.20
2014,07,11,08,20,20.20
2014,07,11,08,21,20.20
2014,07,11,08,22,20.20
2014,07,11,08,23,20.20
2014,07,11,08,24,20.30
2014,07,11,08,25,20.30
2014,07,11,08,26,20.40
2014,07,11,08,27,20.40
2014,07,11,08,28,20.50
2014,07,11,08,29,20.50
2014,07,11,08,30,20.60
2014,07,11,08,31,20.60
2014,07,11,08,32,20.70
2014,07,11,08,33,20.80
2014,07,11,08,34,20.80
2014,07,11,08,35,20.80
2014,07,11,08,36,20.90
2014,07,11,08,37,20.90
2014,07,11,08,38,20.90
2014,07,11,08,39,21.00
2014,07,11,08,40,21.00
2014,07,11,08,41,21.10
2014,07,11,08,42,21.10
2014,07,11,08,43,21.10
2014,07,11,08,44,21.20
2014,07,11,08,45,21.20
2014,07,11,08,46,21.20
2014,07,11,08,47,21.30
2014,07,11,08,48,21.30
2014,07,11,08,49,21.40
2014,07,11,08,50,21.40
2014,07,11,08,51,21.50
2014,07,11,08,52,21.50
2014,07,11,08,53,21.60
2014,07,11,08,54,21.70
2014,07,11,08,55,21.70
2014,07,11,08,56,21.80
2014,07,11,08,57,21.80
2014,07,11,08,58,21.80
2014,07,11,08,59,21.80
2014,07,11,09,00,21.90
2014,07,11,09,01,22.00
2014,07,11,09,02,22.00
2014,07,11,09,03,22.10
2014,07,11,09,04,22.20
2014,07,11,09,05,22.20
2014,07,11,09,06,22.30
2014,07,11,09,07,22.40
2014,07,11,09,08,22.40
2014,07,11,09,09,22.50
2014,07,11,09,10,22.60
2014,07,11,09,11,22.60
2014,07,11,09,12,22.70
2014,07,11,09,13,22.80
2014,07,11,09,14,22.80
2014,07,11,09,15,22.90
2014,07,11,09,16,22.90
2014,07,11,09,17,23.00
2014,07,11,09,18,23.10
2014,07,11,09,19,23.10
2014,07,11,09,20,23.20
2014,07,11,09,21,23.20
2014,07,11,09,22,23.30
2014,07,11,09,23,23.30
2014,07,11,09,24,23.30
2014,07,11,09,25,23.40
2014,07,11,09,26,23.40
2014,07,11,09,27,23.40
2014,07,11,09,28,23.50
2014,07,11,09,29,23.50
2014,07,11,09,30,23.60
2014,07,11,09,31,23.60
2014,07,11,09,32,23.70
2014,07,11,09,33,23.70
2014,07,11,09,34,23.80
2014,07,11,09,35,23.80
2014,07,11,09,36,23.90
2014,07,11,09,37,23.90
2014,07,11,09,38,23.90
2014,07,11,09,39,23.90
2014,07,11,09,40,24.00
2014,07,11,09,41,24.10
2014,07,11,09,42,24.10
2014,07,11,09,43,24.10
2014,07,11,09,44,24.10
2014,07,11,09,45,24.20
2014,07,11,09,46,24.30
2014,07,11,09,47,24.30
2014,07,11,09,48,24.40
2014,07,11,09,49,24.50
2014,07,11,09,50,24.60
2014,07,11,09,51,24.70
2014,07,11,09,52,24.70
2014,07,11,09,53,24.80
2014,07,11,09,54,24.90
2014,07,11,09,55,24.90
2014,07,11,09,56,25.00
2014,07,11,09,57,25.00
2014,07,11,09,58,25.00
2014,07,11,09,59,25.10
2014,07,11,10,00,25.10
2014,07,11,10,01,25.10
2014,07,11,10,02,25.20
2014,07,11,10,03,25.20
2014,07,11,10,04,25.30
2014,07,11,10,05,25.30
2014,07,11,10,06,25.30
2014,07,11,10,07,25.30
2014,07,11,10,08,25.40
2014,07,11,10,09,25.40
2014,07,11,10,10,25.30
2014,07,11,10,11,25.40
2014,07,11,10,12,25.50
2014,07,11,10,13,25.50
2014,07,11,10,14,25.60
2014,07,11,10,15,25.60
2014,07,11,10,16,25.60
2014,07,11,10,17,25.60
2014,07,11,10,18,25.60
2014,07,11,10,19,25.60
2014,07,11,10,20,25.50
2014,07,11,10,21,25.50
2014,07,11,10,22,25.50
2014,07,11,10,23,25.50
2014,07,11,10,24,25.60
2014,07,11,10,25,25.60
2014,07,11,10,26,25.60
2014,07,11,10,27,25.70
2014,07,11,10,28,25.70
2014,07,11,10,29,25.70
2014,07,11,10,30,25.80
2014,07,11,10,31,25.80
2014,07,11,10,32,25.80
2014,07,11,10,33,25.90
2014,07,11,10,34,25.90
2014,07,11,10,35,25.90
2014,07,11,10,36,26.00
2014,07,11,10,37,26.00
2014,07,11,10,38,26.10
2014,07,11,10,39,26.20
2014,07,11,10,40,26.20
2014,07,11,10,41,26.10
2014,07,11,10,42,26.10
2014,07,11,10,43,26.10
2014,07,11,10,44,26.00
2014,07,11,10,45,25.90
2014,07,11,10,46,25.90
2014,07,11,10,47,25.90
2014,07,11,10,48,25.90
2014,07,11,10,49,26.00
2014,07,11,10,50,25.90
2014,07,11,10,51,25.90
2014,07,11,10,52,25.90
2014,07,11,10,53,25.90
2014,07,11,10,54,25.90
2014,07,11,10,55,25.90
2014,07,11,10,56,25.90
2014,07,11,10,57,26.00
2014,07,11,10,58,26.00
2014,07,11,10,59,26.10
2014,07,11,11,00,26.10
2014,07,11,11,01,26.10
2014,07,11,11,02,26.20
2014,07,11,11,03,26.20
2014,07,11,11,04,26.20
2014,07,11,11,05,26.30
2014,07,11,11,06,26.40
2014,07,11,11,07,26.40
2014,07,11,11,08,26.40
2014,07,11,11,09,26.40
2014,07,11,11,10,26.50
2014,07,11,11,11,26.50
2014,07,11,11,12,26.60
2014,07,11,11,13,26.60
2014,07,11,11,14,26.70
2014,07,11,11,15,26.70
2014,07,11,11,16,26.70
2014,07,11,11,17,26.70
2014,07,11,11,18,26.70
2014,07,11,11,19,26.70
2014,07,11,11,20,26.70
2014,07,11,11,21,26.80
2014,07,11,11,22,26.80
2014,07,11,11,23,26.80
2014,07,11,11,24,26.90
2014,07,11,11,25,26.90
2014,07,11,11,26,27.00
2014,07,11,11,27,27.10
2014,07,11,11,28,27.20
2014,07,11,11,29,27.30
2014,07,11,11,30,27.40
2014,07,11,11,31,27.40
2014,07,11,11,32,27.40
2014,07,11,11,33,27.40
2014,07,11,11,34,27.40
2014,07,11,11,35,27.40
2014,07,11,11,36,27.40
2014,07,11,11,37,27.30
2014,07,11,11,38,27.30
2014,07,11,11,39,27.40
2014,07,11,11,40,27.40
2014,07,11,11,41,27.40
2014,07,11,11,42,27.30
2014,07,11,11,43,27.30
2014,07,11,11,44,27.30
2014,07,11,11,45,27.30
2014,07,11,11,46,27.20
2014,07,11,11,47,27.20
2014,07,11,11,48,27.20
2014,07,11,11,49,27.20
2014,07,11,11,50,27.20
2014,07,11,11,51,27.30
2014,07,11,11,52,27.30
2014,07,11,11,53,27.30
2014,07,11,11,54,27.30
2014,07,11,11,55,27.30
2014,07,11,11,56,27.30
2014,07,11,11,57,27.30
2014,07,11,11,58,27.30
2014,07,11,11,59,27.30
2014,07,11,12,00,27.30
2014,07,11,12,01,27.40
2014,07,11,12,02,27.40
2014,07,11,12,03,27.50
2014,07,11,12,04,27.60
2014,07,11,12,05,27.60
2014,07,11,12,06,27.60
2014,07,11,12,07,27.50
2014,07,11,12,08,27.50
2014,07,11,12,09,27.50
2014,07,11,12,10,27.50
2014,07,11,12,11,27.50
2014,07,11,12,12,27.60
2014,07,11,12,13,27.70
2014,07,11,12,14,27.70
2014,07,11,12,15,27.60
2014,07,11,12,16,27.60
2014,07,11,12,17,27.60
2014,07,11,12,18,27.60
2014,07,11,12,19,27.60
2014,07,11,12,20,27.60
2014,07,11,12,21,27.50
2014,07,11,12,22,27.40
2014,07,11,12,23,27.40
2014,07,11,12,24,27.40
2014,07,11,12,25,27.40
2014,07,11,12,26,27.40
2014,07,11,12,27,27.50
2014,07,11,12,28,27.60
2014,07,11,12,29,27.70
2014,07,11,12,30,27.70
2014,07,11,12,31,27.70
2014,07,11,12,32,27.80
2014,07,11,12,33,27.90
2014,07,11,12,34,28.00
2014,07,11,12,35,28.10
2014,07,11,12,36,28.10
2014,07,11,12,37,28.00
2014,07,11,12,38,28.00
2014,07,11,12,39,28.10
2014,07,11,12,40,28.10
2014,07,11,12,41,28.20
2014,07,11,12,42,28.20
2014,07,11,12,43,28.20
2014,07,11,12,44,28.20
2014,07,11,12,45,28.30
2014,07,11,12,46,28.30
2014,07,11,12,47,28.30
2014,07,11,12,48,28.30
2014,07,11,12,49,28.40
2014,07,11,12,50,28.40
2014,07,11,12,51,28.50
2014,07,11,12,52,28.50
2014,07,11,12,53,28.60
2014,07,11,12,54,28.60
2014,07,11,12,55,28.70
2014,07,11,12,56,28.70
2014,07,11,12,57,28.70
2014,07,11,12,58,28.70
2014,07,11,12,59,28.80
2014,07,11,13,00,28.90
2014,07,11,13,01,29.00
2014,07,11,13,02,29.00
2014,07,11,13,03,29.10
2014,07,11,13,04,29.10
2014,07,11,13,05,29.10
2014,07,11,13,06,29.10
2014,07,11,13,07,29.20
2014,07,11,13,08,29.30
2014,07,11,13,09,29.30
2014,07,11,13,10,29.40
2014,07,11,13,11,29.50
2014,07,11,13,12,29.60
2014,07,11,13,13,29.70
2014,07,11,13,14,29.70
2014,07,11,13,15,29.70
2014,07,11,13,16,29.80
2014,07,11,13,17,29.80
2014,07,11,13,18,29.80
2014,07,11,13,19,29.80
2014,07,11,13,20,29.80
2014,07,11,13,21,29.70
2014,07,11,13,22,29.70
2014,07,11,13,23,29.70
2014,07,11,13,24,29.70
2014,07,11,13,25,29.80
2014,07,11,13,26,29.80
2014,07,11,13,27,29.80
2014,07,11,13,28,29.90
2014,07,11,13,29,29.90
2014,07,11,13,30,29.90
2014,07,11,13,31,30.00
2014,07,11,13,32,30.00
2014,07,11,13,33,30.00
2014,07,11,13,34,29.90
2014,07,11,13,35,29.90
2014,07,11,13,36,29.90
2014,07,11,13,37,29.90
2014,07,11,13,38,29.90
2014,07,11,13,39,29.90
2014,07,11,13,40,30.00
2014,07,11,13,41,30.00
2014,07,11,13,42,30.00
2014,07,11,13,43,30.00
2014,07,11,13,44,30.00
2014,07,11,13,45,30.00
2014,07,11,13,46,30.10
2014,07,11,13,47,30.10
2014,07,11,13,48,30.30
2014,07,11,13,49,30.40
2014,07,11,13,50,30.50
2014,07,11,13,51,30.60
2014,07,11,13,52,30.60
2014,07,11,13,53,30.60
2014,07,11,13,54,30.60
2014,07,11,13,55,30.60
2014,07,11,13,56,30.60
2014,07,11,13,57,30.70
2014,07,11,13,58,30.70
2014,07,11,13,59,30.60
2014,07,11,14,00,30.70
2014,07,11,14,01,30.70
2014,07,11,14,02,30.70
2014,07,11,14,03,30.70
2014,07,11,14,04,30.80
2014,07,11,14,05,30.90
2014,07,11,14,06,30.90
2014,07,11,14,07,31.00
2014,07,11,14,08,31.00
2014,07,11,14,09,31.10
2014,07,11,14,10,31.10
2014,07,11,14,11,31.20
2014,07,11,14,12,31.20
2014,07,11,14,13,31.30
2014,07,11,14,14,31.40
2014,07,11,14,15,31.40
2014,07,11,14,16,31.40
2014,07,11,14,17,31.40
2014,07,11,14,18,31.40
2014,07,11,14,19,31.40
2014,07,11,14,20,31.30
2014,07,11,14,21,31.10
2014,07,11,14,22,31.00
2014,07,11,14,23,30.90
2014,07,11,14,24,30.90
2014,07,11,14,25,30.90
2014,07,11,14,26,30.90
2014,07,11,14,27,31.00
2014,07,11,14,28,31.10
2014,07,11,14,29,31.20
2014,07,11,14,30,31.20
2014,07,11,14,31,31.20
2014,07,11,14,32,31.30
2014,07,11,14,33,31.30
2014,07,11,14,34,31.30
2014,07,11,14,35,31.30
2014,07,11,14,36,31.30
2014,07,11,14,37,31.40
2014,07,11,14,38,31.40
2014,07,11,14,39,31.40
2014,07,11,14,40,31.50
2014,07,11,14,41,31.60
2014,07,11,14,42,31.80
2014,07,11,14,43,31.80
2014,07,11,14,44,31.90
2014,07,11,14,45,31.90
2014,07,11,14,46,31.80
2014,07,11,14,47,31.80
2014,07,11,14,48,31.70
2014,07,11,14,49,31.80
2014,07,11,14,50,31.80
2014,07,11,14,51,31.80
2014,07,11,14,52,31.80
2014,07,11,14,53,31.80
2014,07,11,14,54,31.80
2014,07,11,14,55,31.80
2014,07,11,14,56,31.70
2014,07,11,14,57,31.70
2014,07,11,14,58,31.80
2014,07,11,14,59,31.80
2014,07,11,15,00,31.80
2014,07,11,15,01,31.80
2014,07,11,15,02,31.80
2014,07,11,15,03,31.80
2014,07,11,15,04,31.90
2014,07,11,15,05,31.90
2014,07,11,15,06,31.90
2014,07,11,15,07,31.90
2014,07,11,15,08,31.80
2014,07,11,15,09,31.80
2014,07,11,15,10,31.80
2014,07,11,15,11,31.70
2014,07,11,15,12,31.70
2014,07,11,15,13,31.70
2014,07,11,15,14,31.60
2014,07,11,15,15,31.60
2014,07,11,15,16,31.50
2014,07,11,15,17,31.50
2014,07,11,15,18,31.50
2014,07,11,15,19,31.40
2014,07,11,15,20,31.40
2014,07,11,15,21,31.50
2014,07,11,15,22,31.40
2014,07,11,15,23,31.40
2014,07,11,15,24,31.40
2014,07,11,15,25,31.40
2014,07,11,15,26,31.50
2014,07,11,15,27,31.60
2014,07,11,15,28,31.70
2014,07,11,15,29,31.80
2014,07,11,15,30,31.90
2014,07,11,15,31,31.90
2014,07,11,15,32,31.90
2014,07,11,15,33,31.90
2014,07,11,15,34,32.00
2014,07,11,15,35,32.00
2014,07,11,15,36,32.00
2014,07,11,15,37,32.00
2014,07,11,15,38,32.10
2014,07,11,15,39,32.10
2014,07,11,15,40,32.10
2014,07,11,15,41,32.00
2014,07,11,15,42,32.00
2014,07,11,15,43,32.10
2014,07,11,15,44,32.10
2014,07,11,15,45,32.10
2014,07,11,15,46,32.20
2014,07,11,15,47,32.30
2014,07,11,15,48,32.40
2014,07,11,15,49,32.50
2014,07,11,15,50,32.60
2014,07,11,15,51,32.60
2014,07,11,15,52,32.50
2014,07,11,15,53,32.50
2014,07,11,15,54,32.40
2014,07,11,15,55,32.40
2014,07,11,15,56,32.40
2014,07,11,15,57,32.40
2014,07,11,15,58,32.30
2014,07,11,15,59,32.40
2014,07,11,16,00,32.40
2014,07,11,16,01,32.40
2014,07,11,16,02,32.40
2014,07,11,16,03,32.50
2014,07,11,16,04,32.50
2014,07,11,16,05,32.50
2014,07,11,16,06,32.50
2014,07,11,16,07,32.50
2014,07,11,16,08,32.50
2014,07,11,16,09,32.50
2014,07,11,16,10,32.50
2014,07,11,16,11,32.50
2014,07,11,16,12,32.40
2014,07,11,16,13,32.40
2014,07,11,16,14,32.40
2014,07,11,16,15,32.40
2014,07,11,16,16,32.40
2014,07,11,16,17,32.40
2014,07,11,16,18,32.50
2014,07,11,16,19,32.60
2014,07,11,16,20,32.70
2014,07,11,16,21,32.90
2014,07,11,16,22,33.00
2014,07,11,16,23,33.00
2014,07,11,16,24,33.10
2014,07,11,16,25,33.00
2014,07,11,16,26,33.00
2014,07,11,16,27,32.90
2014,07,11,16,28,32.80
2014,07,11,16,29,32.80
2014,07,11,16,30,32.80
2014,07,11,16,31,32.70
2014,07,11,16,32,32.70
2014,07,11,16,33,32.80
2014,07,11,16,34,32.80
2014,07,11,16,35,32.80
2014,07,11,16,36,32.80
2014,07,11,16,37,32.70
2014,07,11,16,38,32.70
2014,07,11,16,39,32.60
2014,07,11,16,40,32.60
2014,07,11,16,41,32.60
2014,07,11,16,42,32.70
2014,07,11,16,43,32.70
2014,07,11,16,44,32.70
2014,07,11,16,45,32.70
2014,07,11,16,46,32.80
2014,07,11,16,47,32.80
2014,07,11,16,48,32.80
2014,07,11,16,49,32.80
2014,07,11,16,50,32.80
2014,07,11,16,51,32.80
2014,07,11,16,52,32.80
2014,07,11,16,53,32.80
2014,07,11,16,54,32.80
2014,07,11,16,55,32.90
2014,07,11,16,56,32.90
2014,07,11,16,57,32.90
2014,07,11,16,58,32.90
2014,07,11,16,59,32.90
2014,07,11,17,00,32.90
2014,07,11,17,01,32.80
2014,07,11,17,02,32.80
2014,07,11,17,03,32.80
2014,07,11,17,04,32.80
2014,07,11,17,05,32.80
2014,07,11,17,06,32.90
2014,07,11,17,07,32.90
2014,07,11,17,08,32.90
2014,07,11,17,09,33.00
2014,07,11,17,10,33.10
2014,07,11,17,11,33.20
2014,07,11,17,12,33.20
2014,07,11,17,13,33.10
2014,07,11,17,14,33.10
2014,07,11,17,15,33.00
2014,07,11,17,16,32.90
2014,07,11,17,17,32.90
2014,07,11,17,18,32.90
2014,07,11,17,19,32.90
2014,07,11,17,20,33.00
2014,07,11,17,21,33.10
2014,07,11,17,22,33.10